Starlink 5468

operational
NORAD ID: 54777 Int'l Des: 2022-175 Owner: SPXS Country: US Constellation: starlink
LEOCIRCULAR

Starlink 5468について

説明を読み込み中...

リアルタイム位置

3D地球を読み込み中...

次回通過

高度履歴

Altitude vs Time

uPlot chart will show altitude changes over time

軌道要素

1 54777U 22175V 25256.90657357 .00000733 00000-0 64135-4 0 9995
2 54777 53.2164 117.5290 0001367 92.5539 267.5610 15.08836655153236
Epoch: Sep 13, 2025 • Age: 37 hours

現在のステータス

高度 539.5 km
速度 7.60 km/s
衛星直下点 15.72°N, 118.37°E
打ち上げ日 Dec 17, 2022
運用期間 2.7 years
タイプ internet

技術仕様

分類 Payload
質量 305.00 kg
乾燥質量 290.00 kg
総質量 305.00 kg
長さ 0.20 m
直径 2.80 m
スパン 9.00 m
形状 Box + pan
製造者 SPXS
バスタイプ Starlink
フェーズステータス In Orbit
所有者/国 SPXS/US

大規模コンステレーション

Loading constellations...